Showing default

BADR 7, 41029

Orbit data source: Space-Track

BADR 7, 41029 is a payload satellite owned by Arabsat (SA) in GEO that was launched on Tue, 10 Nov 2015 UTC via an ARIANE 5ECA launch vehicle from the French Guiana (FRGUI). Payload-class satellites include a variety of spacecraft equipped with specific instruments for various scientific and technological missions. These include communications satellites like Starlink; space stations such as the ISS; scientific satellites like the Hubble; Earth observation satellites from companies like Planet Labs, Umbra, and HawkEye 360; GPS; miniature CubeSats for education and research; and military/defense satellites.

Not visible in the next 10 days
Identifier
41029, 2015-065B
Orbit
GEO
Last TLE update
9 hours ago
Origin
Manufacturer
ADS/Bremen
Mission
Operational Commercial Communications
Bus & Motor
EUROSTAR 3000LS, R-4D?
Mass
5,799 kg wet, ~3,000 kg dry
Launch date (UTC)
2015-11-10 (10 years ago)
Launch vehicle
ARIANE 5ECA
Launch site
French Guiana (FRGUI)
Object type
Payload
Rocket body
Debris
Shape & HBR
Box + 2 Pan, 30.8 m
Radar Cross Section
30.523 m², Large (>1 m²)

Expand to show TLE details & history

TLE from 9 hours ago
0 BADR 7
1 41029U 15065B   25186.56993019  .00000161  00000-0  00000-0 0  9995
2 41029   0.0425 205.0621 0003807 359.8377 310.0641  1.00269996 35291
Epoch: 2025-07-05T13:40Z
TLE epoch observation values (Epoch: 2025-07-05T13:40:41.968Z)
Latitude
-0.01367°
Longitude
25.95225°
Altitude
35,776.328 km
Speed
3.075 km/s
True Right ascension
10h 19m 43s
True Declination
0° 00' 49"
Sunlit
Object was in daylight at epoch
Visualization orbit readout
Latitude
-0.00814°
Longitude
160.91953°
Altitude
35,785.097 km
Speed
3.075 km/s
Apparent Right ascension
19h 38m 11s
Apparent Declination
-5° 06' 58"
Sunlit
Object is in daylight
Visualization observer readout
Local Sidereal Time
10:35:01
Azimuth
60.701° ENE
Elevation
-37.215°
Doppler factor
1
Orbital elements
Apogee altitude
35,804.22 km
Perigee altitude
35,772.114 km
Semi-major axis
42,166.304 km
Eccentricity
0.00038
Inclination
0.0425°
RAAN
205.0621°
Arg. of periapsis
359.8377°
True anomaly
Unknown
Mean anomaly
310.0641°
Eccentric anomaly
Unknown
Mean motion
0.25067 °/min
Orbital period
1,436.18 mins
BSTAR
0
Loading historical data...
41029 neighbors
Loading maneuver chart data...
Loading SW <> Apogee altitude chart data...
Loading historical data...
Loading historical data...
Loading historical data...
Loading historical data...
Loading historical data...
Loading historical data...
Loading historical data...
Other satellites on launch #65 in the year 2015 (2015-11-10 UTC)

BADR 7 Visibility

Observer location: undefined°, undefined°

BADR 7 is likely not visible in the next few days
Span
Click to sort rows by Start time (UTC) header in descending order
Start Az.
Max El. time (UTC)
Max El. Az.
Max El.
End time (UTC)
End Az.
|